Theta_e
310 310 310 309 310 310 310 309 309 310 310 310 312 312 312 313 314 315 317 319 323 329 330 330 331 330 328 328 328 327 327 328 329 329 329 330 330 330 331 332 333 333 334 336 339 340 342 344 345 346 348 350 352 353 350 348 347 346 347 348 348 349 349 350 350 350 349 350 350 350 350 349 349 349 349 348 347 346 346 345 346 345 345 345 345 343 342
311 310 310 310 309 310 309 309 309 309 309 310 310 311 312 313 313 316 320 324 328 329 328 329 330 328 327 327 328 327 326 326 327 328 328 328 328 329 330 330 331 332 333 335 337 338 340 342 343 344 345 347 350 353 353 351 348 346 347 348 348 348 349 349 348 348 348 349 350 350 349 348 348 348 349 349 348 347 346 345 345 345 345 345 346 345 344
310 310 310 310 310 310 309 309 309 308 308 309 310 311 313 314 317 323 326 328 329 327 326 327 328 327 326 327 327 327 326 325 326 326 327 327 327 327 328 329 330 330 332 334 336 337 338 339 340 342 343 345 348 351 353 354 352 349 348 348 347 347 348 348 347 347 348 348 348 349 348 348 348 347 348 349 348 347 347 346 346 345 345 345 346 346 346
310 310 310 310 310 309 308 309 310 310 309 310 311 311 314 318 324 326 324 325 329 327 324 325 326 326 327 326 326 327 326 325 325 325 325 325 326 326 326 328 329 329 330 332 334 335 337 338 338 338 340 342 345 348 351 353 355 353 350 348 347 347 347 347 347 347 348 348 348 349 348 348 348 347 347 348 348 348 348 348 347 346 346 347 346 346 347
310 310 310 311 310 307 308 310 311 310 311 311 311 312 318 324 327 325 322 324 328 326 324 324 324 325 327 326 325 325 325 325 325 325 325 325 324 325 325 326 327 328 329 331 333 334 335 337 337 336 337 339 341 344 348 352 355 355 354 351 348 348 348 348 347 347 348 349 349 349 348 348 348 348 349 349 349 349 349 349 348 348 348 348 347 347 347
312 311 312 312 309 306 309 310 310 312 313 312 311 313 320 326 326 325 325 326 327 325 324 324 323 323 325 325 323 323 323 324 323 323 324 324 324 324 324 324 326 328 330 330 331 333 335 336 336 334 334 335 337 340 345 349 354 356 356 355 351 350 350 349 347 348 348 350 350 349 349 349 349 351 350 349 349 350 351 351 350 350 349 349 349 348 348
312 313 312 310 308 309 310 310 312 316 316 315 314 316 321 325 325 324 325 325 325 324 323 322 322 322 322 323 323 322 320 322 322 322 322 322 323 324 324 324 325 327 329 330 330 332 334 335 335 333 332 332 334 338 343 347 349 353 356 357 355 353 352 351 350 350 349 350 351 351 351 351 351 352 351 351 351 352 352 353 352 351 350 351 351 350 349
313 313 310 309 310 311 311 312 316 318 317 317 318 319 322 324 323 322 323 323 323 323 322 322 322 321 321 322 324 321 319 320 321 320 320 320 321 323 324 324 325 326 328 329 330 331 332 333 333 332 331 331 332 336 341 345 346 348 350 353 356 356 355 354 352 352 351 351 351 351 353 353 354 354 353 352 352 353 354 354 353 353 352 352 352 351 351
313 313 312 312 312 311 313 315 317 317 317 317 316 316 320 322 320 320 321 321 321 321 321 321 320 320 322 325 325 322 318 318 319 320 320 320 320 322 324 325 325 325 326 329 330 330 331 331 331 331 330 330 332 335 338 341 343 345 345 346 349 354 357 357 355 354 354 353 353 353 354 355 355 355 355 354 354 354 355 355 354 355 354 354 353 353 353
313 313 313 314 312 311 315 318 317 316 316 317 317 316 318 318 317 317 319 318 318 318 318 319 319 320 323 326 325 321 318 317 319 319 320 320 321 321 323 324 324 325 326 328 329 329 330 329 329 330 329 329 332 334 335 337 340 342 341 340 341 347 353 356 358 358 357 356 356 356 356 356 356 356 356 356 355 355 355 355 355 355 355 355 355 354 354
314 313 313 313 312 313 316 317 316 314 314 317 317 315 316 317 315 315 316 316 316 317 317 317 318 319 322 324 322 319 317 317 318 319 319 320 320 321 322 322 324 325 326 327 328 328 329 328 328 328 328 329 332 334 334 335 338 338 336 335 336 340 345 349 352 357 358 358 358 358 357 357 356 357 357 357 356 355 355 356 356 356 356 356 356 356 355
314 313 313 313 313 314 316 316 315 314 314 316 315 313 317 318 314 313 315 315 315 316 316 316 317 318 319 320 319 317 316 317 318 319 319 320 320 320 321 321 323 324 325 326 327 327 328 328 327 327 328 329 332 333 333 333 335 335 333 332 333 336 339 342 346 351 356 359 359 359 359 359 358 359 359 358 357 357 357 357 357 357 357 357 357 357 356
315 314 314 314 313 314 316 316 314 313 314 315 314 314 317 316 313 313 315 315 315 316 315 315 316 316 316 316 315 314 314 315 316 318 318 319 319 319 320 321 322 323 325 326 326 326 327 328 327 327 327 329 331 332 331 332 332 331 331 331 332 334 336 339 342 347 352 357 359 359 359 360 360 360 360 359 359 359 358 358 358 357 357 358 357 357 357
315 315 315 315 314 315 316 316 315 314 314 314 315 315 314 313 313 315 315 314 314 315 314 314 315 314 314 313 312 312 313 313 315 316 317 317 318 318 319 320 321 322 323 325 326 326 326 326 326 326 326 328 330 331 331 332 330 329 330 331 332 332 334 337 340 344 348 353 357 358 359 360 360 361 361 360 360 360 359 359 358 358 357 357 357 358 358
314 315 315 315 315 316 316 315 315 315 314 314 314 313 312 313 314 314 314 314 314 313 313 313 313 312 312 312 312 312 312 313 314 315 315 316 317 317 318 319 319 321 322 324 325 326 325 325 326 326 326 327 328 330 330 330 329 328 329 331 331 331 333 336 339 343 345 348 352 354 356 358 359 360 360 361 360 360 360 360 359 359 358 358 357 357 358
314 315 316 315 315 316 315 315 315 316 315 314 313 312 312 313 313 313 313 313 312 312 311 311 311 311 311 311 311 311 312 312 314 314 315 316 316 316 317 318 318 319 321 323 325 325 325 325 326 326 326 326 327 329 329 328 328 328 329 330 331 331 332 334 337 341 344 346 348 349 350 353 356 358 360 360 360 361 361 360 360 359 359 359 359 358 359
314 314 315 314 314 314 315 314 316 316 315 313 313 312 312 312 312 312 312 312 311 310 310 310 310 310 310 310 311 311 311 312 313 314 315 315 315 315 316 317 318 319 320 321 323 324 325 325 326 325 324 325 326 327 327 327 327 327 328 330 330 330 331 334 336 339 342 344 346 347 348 349 351 355 358 359 360 360 361 360 361 361 360 360 360 360 360
313 312 313 312 312 313 314 313 313 313 313 313 312 312 311 312 312 311 310 310 310 309 309 310 310 310 310 310 310 310 311 311 313 314 314 314 315 315 315 316 318 318 319 320 321 323 324 325 326 324 323 323 325 326 326 326 326 326 327 329 329 329 331 332 334 337 340 342 345 347 349 351 352 354 357 360 361 361 361 361 361 361 361 361 361 361 361
312 313 315 313 312 313 314 313 313 312 312 312 312 311 311 311 310 310 309 309 309 309 309 309 310 310 310 310 310 310 310 311 312 313 313 314 314 314 315 316 317 318 319 319 321 322 324 325 326 324 322 322 323 324 325 325 324 325 326 327 328 328 329 330 332 335 338 341 342 345 348 352 353 354 357 361 362 362 362 362 362 362 362 362 362 362 362
313 314 315 313 311 312 312 312 313 312 312 312 311 310 311 311 310 310 309 309 309 309 309 309 310 309 309 309 310 310 310 311 312 312 313 313 314 314 315 315 316 317 318 319 320 322 323 325 325 324 323 321 321 322 323 323 323 323 325 326 327 327 327 329 332 334 336 338 339 341 344 347 350 353 356 360 363 364 364 364 363 363 363 363 363 363 363
314 314 314 313 312 312 311 311 311 312 312 311 310 310 310 310 309 309 309 309 309 309 309 309 309 309 309 309 310 309 310 311 312 312 312 313 313 314 315 315 316 317 317 319 320 321 323 324 325 325 323 321 320 320 321 322 322 323 324 325 326 326 327 329 331 332 333 334 336 338 340 343 346 350 352 355 358 361 364 365 364 364 364 364 364 364 364
314 314 314 314 313 313 313 312 312 312 311 310 310 310 309 309 309 309 309 309 310 309 309 310 309 308 309 310 310 310 310 311 311 312 312 312 313 314 314 315 316 317 317 319 320 321 322 324 325 325 323 321 320 319 320 320 321 322 323 323 324 326 327 327 329 329 330 331 334 336 338 339 341 344 346 349 351 354 358 362 364 364 365 365 365 364 365
315 315 315 315 313 313 313 313 312 312 311 310 310 310 309 309 309 309 309 308 309 309 310 310 309 309 309 309 309 310 310 310 311 311 311 312 312 313 314 315 316 316 317 318 320 321 322 324 325 324 323 321 320 319 319 319 319 320 322 322 323 325 325 326 327 327 327 329 332 334 335 336 338 339 341 346 350 352 354 358 362 363 363 364 364 364 364
315 315 315 314 313 313 313 312 312 312 311 310 310 309 309 309 309 309 309 309 309 308 309 309 309 309 309 308 309 309 310 310 310 311 311 311 312 313 314 315 316 317 318 319 320 321 322 324 324 324 323 321 320 319 319 318 318 319 320 321 322 323 324 324 325 326 327 328 330 331 332 333 335 337 339 342 347 350 352 355 359 362 363 363 363 363 363
315 315 314 313 312 313 312 310 311 312 311 311 310 309 310 310 309 309 310 310 309 308 308 308 308 308 308 308 309 310 310 310 310 311 311 312 312 312 314 315 316 316 317 319 320 321 322 324 323 323 322 321 320 319 318 317 317 318 319 320 321 321 322 323 324 325 326 327 327 327 328 329 332 335 338 341 344 346 348 350 354 359 362 363 363 362 363
314 314 313 311 311 311 310 309 310 310 310 311 311 310 310 309 309 309 309 309 308 308 308 308 308 308 308 309 309 310 310 311 311 312 312 312 312 312 313 314 315 316 316 318 319 320 322 323 323 322 321 320 319 318 318 316 316 316 318 319 319 320 322 323 324 324 325 325 324 325 325 326 328 332 336 339 341 342 344 347 350 354 358 362 363 363 362
312 312 311 310 311 311 310 310 311 311 310 311 311 311 310 309 309 309 309 309 308 308 308 308 308 308 309 309 310 310 311 311 312 312 312 312 312 312 312 314 314 315 317 318 318 320 322 323 322 321 321 320 318 317 317 315 315 316 317 318 318 319 321 322 323 323 323 323 323 323 324 324 326 328 331 334 337 340 343 345 347 349 352 356 360 362 362
312 311 310 310 313 314 312 311 313 312 311 311 311 310 310 309 309 309 308 308 309 308 307 308 308 308 310 310 310 311 311 311 312 312 312 312 312 312 312 313 314 315 316 317 318 320 321 322 321 320 319 318 317 317 316 315 315 315 316 317 318 318 319 320 321 321 321 321 322 322 322 323 324 326 328 331 335 339 342 344 346 347 349 351 354 357 358
312 311 310 309 311 313 313 311 311 311 311 311 311 310 310 310 309 309 308 308 308 308 308 308 308 309 310 310 310 311 311 311 311 311 312 312 313 312 312 313 314 315 316 317 319 320 321 321 320 319 318 317 316 316 315 314 314 315 316 317 317 317 317 318 319 320 320 320 321 321 321 322 323 325 327 329 332 336 339 342 344 346 346 348 349 351 354
313 313 312 311 310 310 311 311 310 310 310 310 310 310 310 310 309 308 308 308 308 308 308 308 309 309 310 310 310 310 310 310 311 311 312 312 313 313 313 313 314 315 317 318 319 320 319 319 318 317 317 316 315 315 314 313 314 315 315 316 316 317 316 317 317 318 319 320 321 320 321 322 323 324 324 327 329 332 336 339 342 344 346 347 348 349 352
314 313 312 311 309 308 309 311 311 311 310 310 310 310 311 310 309 308 308 307 307 308 308 308 309 310 310 309 309 309 309 310 311 312 313 314 314 314 314 314 316 318 319 319 318 318 317 317 316 316 315 314 314 313 313 313 313 314 315 315 316 316 316 315 316 317 318 319 320 320 321 322 322 322 322 324 326 329 331 334 337 341 344 346 347 349 350
314 312 310 310 309 309 309 310 311 311 310 310 311 311 312 310 309 308 308 307 307 308 308 308 309 309 309 309 309 309 309 309 310 311 312 313 313 314 314 314 315 316 317 316 315 314 314 314 314 314 313 313 313 312 312 312 313 314 314 315 315 315 315 315 316 317 318 318 319 320 320 320 320 320 321 322 323 325 326 328 331 335 338 342 345 348 348
313 312 310 309 309 309 310 310 310 311 311 311 312 313 312 310 309 309 308 307 307 308 308 308 309 308 308 308 308 308 308 309 310 310 310 310 311 311 310 310 310 311 311 311 311 312 312 312 312 312 312 312 311 311 311 312 312 313 313 314 314 315 315 315 316 316 317 318 318 318 318 318 318 319 319 320 321 322 323 325 327 329 332 336 340 343 346
313 313 312 311 310 310 311 311 311 311 312 312 312 312 311 310 310 309 308 307 308 307 308 308 308 307 307 307 307 307 307 308 309 309 309 309 309 309 309 309 309 309 309 309 310 310 310 311 311 311 311 311 310 310 311 311 312 312 313 313 314 314 315 315 316 316 316 316 317 317 316 316 317 317 318 318 319 319 320 322 323 325 327 330 333 337 340
313 313 313 313 312 313 314 313 312 312 312 312 311 310 310 310 309 308 307 307 307 307 307 308 308 307 306 306 306 306 306 306 307 308 308 308 308 308 308 309 309 309 309 308 308 309 309 310 310 310 310 310 310 310 310 310 311 312 313 313 313 314 315 315 316 315 315 315 315 315 315 315 315 316 316 316 316 317 318 318 319 321 322 324 326 327 330
312 312 313 313 313 314 314 313 313 314 313 311 310 309 310 309 308 307 307 306 306 306 307 307 307 307 306 306 306 305 305 305 305 306 307 307 306 306 307 307 308 309 309 308 307 306 307 309 310 309 309 309 309 309 309 310 311 312 312 312 313 313 314 314 314 314 314 314 313 313 313 314 314 314 314 314 314 314 315 315 315 315 315 316 317 317 320
311 311 312 313 314 313 313 313 313 313 312 310 310 310 310 309 307 307 306 306 305 306 306 306 307 306 306 305 305 304 304 304 304 304 305 305 306 306 305 306 306 307 308 308 307 306 306 308 309 309 308 308 308 308 309 309 310 311 312 311 311 312 313 313 313 313 312 312 312 312 312 312 312 312 312 312 312 312 312 312 311 311 310 310 311 310 311
309 310 310 311 312 313 313 312 311 310 310 310 310 310 309 308 307 306 306 305 305 305 305 305 305 305 305 304 304 303 303 303 303 303 303 303 304 305 305 305 304 305 306 307 307 306 306 307 308 308 308 307 307 307 308 308 309 310 310 310 310 311 312 312 312 312 311 311 311 311 311 311 311 311 310 310 310 310 309 309 309 308 307 307 307 307 307
309 308 308 308 310 311 311 310 310 309 309 310 310 309 308 307 307 306 305 305 305 304 304 304 304 304 303 303 303 302 302 302 302 302 302 302 303 304 304 303 302 303 305 306 305 305 306 306 306 306 307 307 307 307 307 308 308 309 309 309 309 310 310 311 311 310 310 310 310 309 309 309 309 309 309 308 308 307 307 306 306 306 306 305 305 305 305
310 309 307 307 309 310 310 310 310 310 309 309 309 309 308 307 306 305 305 305 304 304 304 303 303 303 302 302 302 302 302 302 302 302 301 301 302 303 303 302 301 302 304 305 305 305 305 305 305 306 306 306 306 306 307 307 307 307 307 308 308 309 309 310 309 309 309 309 308 308 308 308 308 308 307 307 306 306 305 304 304 304 304 303 303 302 302
311 309 308 308 308 309 309 309 310 310 309 308 308 308 308 307 306 305 305 304 304 305 304 303 303 302 302 302 302 301 301 301 302 302 301 301 301 302 302 301 300 301 303 304 304 304 304 304 304 305 305 305 305 306 306 306 306 305 306 307 307 308 308 308 308 308 307 307 307 307 307 307 306 306 306 306 305 304 303 303 302 302 302 302 301 301 300
311 310 309 308 309 309 309 309 309 309 309 308 308 308 307 306 305 305 305 304 305 305 304 304 303 303 302 302 302 302 301 301 301 301 301 301 300 300 301 300 299 300 302 303 303 303 303 303 303 304 304 304 305 305 305 305 305 305 305 306 307 307 307 307 307 307 306 306 306 306 306 305 305 305 304 304 303 302 302 301 301 300 300 300 300 300 299
311 310 309 309 309 309 309 309 309 309 309 309 308 307 307 306 306 305 305 305 305 305 305 304 304 303 303 302 302 302 302 302 301 301 302 301 300 300 300 300 299 300 301 302 302 302 302 302 302 303 303 303 303 303 303 304 304 304 304 305 305 306 306 306 306 306 306 305 305 305 305 304 304 303 303 303 302 301 301 300 300 299 299 298 298 298 298
310 310 309 309 309 308 309 310 310 309 309 309 308 308 307 306 306 306 305 305 305 305 306 306 306 305 304 303 303 302 302 302 301 301 301 301 300 300 300 299 299 299 300 301 301 301 301 302 302 302 302 302 302 302 302 303 303 303 304 304 304 305 305 305 305 305 305 304 304 304 304 303 303 302 302 302 302 301 300 299 299 298 298 298 298 297 297
310 310 309 308 308 308 309 310 309 309 309 309 308 308 307 307 306 306 306 305 305 305 306 306 306 305 305 305 304 302 301 301 301 301 300 300 300 300 299 299 299 299 299 299 299 300 300 301 301 301 301 301 301 301 301 302 302 302 303 303 303 303 303 303 304 304 304 303 303 303 303 302 302 302 301 301 301 301 300 299 299 298 298 297 297 297 297
310 309 308 308 308 308 309 309 309 309 309 308 308 308 308 307 306 306 306 305 305 305 305 305 305 305 305 305 305 303 301 300 300 300 300 300 300 299 298 298 298 298 298 298 298 299 299 300 300 300 300 300 300 300 301 301 301 301 302 302 302 302 302 302 302 303 303 303 302 302 302 302 302 301 301 301 301 300 300 299 299 298 298 298 297 297 297
309 308 307 308 308 308 308 308 308 309 309 309 308 308 308 307 306 306 306 305 305 305 305 305 305 304 304 304 305 304 302 301 300 299 299 299 299 298 298 298 297 297 297 297 297 298 298 299 299 299 299 299 299 299 300 300 300 301 301 301 301 301 301 301 301 301 302 301 301 301 301 301 301 301 301 300 300 300 299 299 298 298 297 297 297 297 297
308 307 307 308 307 307 307 308 309 309 308 308 309 308 307 306 306 306 306 305 305 305 304 305 304 303 303 303 304 303 302 301 300 300 299 298 298 298 297 297 297 297 297 297 296 297 297 298 298 298 298 298 297 298 298 299 299 300 300 300 300 300 300 300 300 300 301 301 300 300 300 300 300 300 300 299 299 299 298 298 298 297 297 296 296 296 295
308 308 308 308 307 307 307 308 309 309 309 309 309 308 307 306 306 306 305 304 304 304 304 303 303 302 302 303 303 302 301 300 300 300 299 298 298 297 297 297 297 296 296 296 296 296 296 296 296 297 297 297 297 296 297 297 298 299 299 299 299 299 299 299 299 299 300 300 300 300 300 300 299 299 299 298 298 298 298 297 297 296 296 296 295 295 294
308 308 308 307 307 307 307 308 308 309 309 309 309 308 307 306 306 306 305 305 305 304 303 302 302 302 301 302 302 302 301 300 300 300 299 298 297 297 297 297 297 297 296 296 296 296 296 295 295 295 295 296 296 296 295 296 297 297 298 298 298 298 298 298 298 298 298 298 298 298 299 299 299 298 298 298 297 297 297 297 296 295 295 295 295 294 294
307 307 307 307 307 306 307 307 306 307 308 309 308 308 307 306 306 306 306 305 305 304 303 302 302 301 301 301 301 302 301 301 300 300 299 298 298 297 297 297 297 297 297 296 296 296 295 295 295 294 293 294 294 295 294 294 295 295 296 296 296 296 296 297 297 297 297 297 297 297 297 297 297 297 297 297 297 297 296 296 295 294 294 294 294 294 293
307 307 307 306 306 306 306 306 305 305 307 308 308 307 307 307 306 306 306 305 305 305 304 302 302 301 301 301 301 301 301 301 301 300 299 299 298 298 298 297 297 297 297 297 296 296 295 295 295 294 293 293 293 294 293 293 293 293 293 294 294 295 295 295 295 295 296 296 296 296 296 296 296 296 296 296 296 296 295 295 294 294 293 292 292 291 291
Wind_Speed
5 4 4 4 3 3 2 3 3 4 5 5 4 4 3 1 1 2 3 2 3 5 6 7 8 8 8 8 9 9 9 11 12 13 15 16 16 17 16 15 14 14 13 14 17 21 23 24 23 21 20 18 14 6 10 20 24 25 24 26 28 27 26 27 30 34 34 30 28 29 29 31 33 31 27 27 29 30 31 31 30 29 28 28 29 32 34
6 4 4 4 4 4 3 3 3 3 3 3 3 1 1 1 0 2 3 5 5 4 5 6 6 6 6 5 7 9 11 13 13 14 15 16 16 16 15 14 13 12 12 13 16 18 20 23 24 22 20 19 17 15 9 8 18 23 23 25 30 29 27 32 37 37 35 33 31 30 32 34 36 34 31 28 29 30 32 33 31 30 30 28 27 29 31
4 2 3 4 5 5 5 5 4 2 1 1 0 0 1 1 1 2 2 5 6 3 4 4 5 5 6 7 9 10 11 13 13 14 14 15 15 16 15 14 13 12 13 14 15 17 19 20 21 21 21 20 17 16 15 11 8 15 21 26 31 32 31 36 39 36 35 36 35 33 36 36 36 36 34 31 30 32 32 32 32 33 32 30 28 27 27
3 1 2 4 5 4 3 2 3 3 2 3 1 0 1 0 1 1 1 3 3 2 3 3 4 5 7 8 9 9 9 11 13 13 13 14 15 15 15 15 14 13 13 14 15 16 17 19 19 19 20 20 19 19 18 15 11 9 15 22 29 33 34 36 37 35 35 34 34 35 36 36 36 36 35 32 32 32 31 31 32 32 30 30 31 29 26
3 2 2 4 4 3 2 1 2 2 2 2 0 1 2 1 0 1 1 1 3 2 1 3 4 5 6 7 8 7 8 10 11 12 12 12 13 14 14 14 14 14 14 15 17 17 17 17 18 18 19 18 18 20 19 17 14 11 11 16 25 30 31 32 35 36 35 33 33 35 36 36 36 35 34 34 34 33 32 31 31 30 30 30 31 31 28
3 2 2 3 3 3 1 2 1 2 2 1 1 1 2 1 1 0 1 3 3 2 1 3 4 5 5 4 4 6 7 8 10 11 12 12 12 12 13 13 13 15 17 18 18 18 17 18 17 18 20 20 20 20 19 18 16 14 11 12 19 25 27 31 34 34 33 33 33 34 36 36 35 33 34 36 37 35 31 29 29 31 31 29 30 32 32
1 1 2 3 2 0 2 1 1 2 3 3 2 1 2 2 1 1 2 2 2 1 2 2 4 6 6 4 1 6 8 8 9 11 11 13 13 13 13 13 14 16 19 20 21 20 19 18 18 18 21 24 25 23 19 18 19 17 14 10 12 19 23 26 29 30 31 32 33 33 34 34 33 33 34 35 35 33 29 28 30 34 34 31 30 33 34
1 1 2 2 1 1 1 1 1 2 1 2 3 3 4 3 0 1 0 0 2 2 3 3 5 7 6 5 4 3 9 9 9 10 10 12 13 12 13 14 16 17 19 20 21 21 20 19 19 19 20 23 26 24 18 16 18 18 17 14 9 10 15 20 23 26 28 31 32 32 31 30 30 31 32 35 35 33 28 26 27 30 32 32 32 34 34
1 1 2 1 2 2 4 3 3 3 2 2 1 2 3 3 1 2 0 1 2 3 4 5 7 8 5 4 5 1 9 11 10 11 11 11 13 14 14 15 16 17 17 18 19 20 19 19 19 19 21 23 24 22 19 18 18 17 17 18 16 10 6 12 17 21 24 26 29 30 28 27 28 30 32 34 34 32 29 26 25 25 27 29 30 31 32
1 1 2 1 2 2 3 5 4 2 1 3 1 2 2 3 2 1 1 2 4 4 5 6 7 7 4 4 3 3 9 11 11 12 12 13 14 15 16 16 16 17 17 17 18 19 18 19 19 19 21 21 20 18 18 19 19 16 17 20 18 13 8 4 7 13 19 22 24 25 26 26 28 30 31 31 32 33 31 29 27 26 25 26 27 28 29
2 3 2 2 3 1 3 6 7 3 2 4 2 3 3 4 3 1 1 2 4 4 5 6 7 5 3 3 1 5 10 13 12 12 13 14 14 15 15 16 16 17 17 17 17 17 18 19 19 20 21 19 16 14 15 16 16 16 18 21 19 16 13 8 6 9 14 19 22 22 24 26 28 28 28 29 32 34 33 30 28 26 24 24 25 26 28
3 4 3 2 3 1 3 7 8 4 3 4 4 5 2 5 4 2 0 2 3 3 4 5 4 3 3 4 4 7 11 13 13 13 14 15 16 15 15 16 17 17 16 16 17 17 18 19 19 19 19 17 14 13 14 14 14 14 17 20 19 18 17 13 10 11 13 16 20 22 23 24 25 24 26 27 28 29 29 28 27 26 25 24 24 25 26
4 5 5 3 3 2 3 7 8 7 4 4 5 3 2 5 4 3 2 2 3 3 4 4 3 4 4 5 7 9 10 11 13 14 16 17 17 16 16 16 16 16 16 15 16 16 17 18 18 18 18 16 14 13 12 12 14 14 16 19 20 19 19 18 15 14 12 11 14 18 21 22 22 23 24 24 23 25 27 26 25 26 27 25 25 25 25
3 4 4 5 5 2 6 7 7 6 4 4 2 1 3 3 3 3 3 3 3 3 5 5 5 6 7 8 9 10 10 10 11 14 16 18 18 18 18 17 16 16 16 16 17 16 16 17 17 16 16 16 15 14 12 13 15 17 16 18 20 21 20 19 18 15 13 11 11 13 16 19 22 24 24 24 23 25 26 25 24 26 27 27 26 25 25
1 2 4 5 4 2 9 10 7 6 5 1 2 2 2 2 2 2 3 3 3 4 6 7 8 10 10 10 10 10 11 10 11 13 15 17 18 19 18 18 17 17 16 16 16 16 16 16 16 15 16 16 16 15 13 13 14 16 18 19 19 20 20 19 17 16 15 15 14 13 14 15 19 24 25 26 26 25 25 25 25 26 27 26 26 26 25
3 3 5 4 2 2 10 9 4 5 4 3 3 2 1 2 2 3 3 3 3 5 6 8 10 11 12 12 11 10 11 11 12 13 14 15 18 19 19 19 18 18 17 16 16 17 17 15 14 14 14 15 15 15 14 13 12 14 18 19 19 18 19 19 18 16 15 16 17 18 17 14 16 21 26 28 29 27 27 27 27 28 28 27 26 27 27
4 3 3 1 3 1 7 5 1 3 4 3 2 2 1 2 3 2 3 4 5 6 7 9 10 10 11 12 12 11 11 11 12 14 14 15 17 19 21 20 17 17 18 18 17 17 17 15 14 14 14 14 15 15 15 13 12 12 15 17 18 18 19 19 19 18 18 17 18 19 19 15 14 19 26 30 30 29 29 30 29 28 28 28 27 27 27
3 6 6 4 3 4 7 6 1 2 2 1 3 3 3 3 3 3 3 4 5 6 8 8 9 10 11 12 13 13 12 12 14 15 15 15 16 19 21 21 18 17 18 19 18 17 17 15 13 15 16 15 14 15 15 14 12 12 12 14 16 18 20 19 19 19 19 19 18 17 17 14 14 19 26 30 30 28 28 29 30 29 28 28 27 27 27
3 4 5 6 8 7 7 7 6 3 3 3 4 4 4 3 3 3 4 5 6 7 8 8 10 11 12 13 14 14 13 13 15 17 17 16 16 18 20 21 21 18 18 18 18 18 17 14 12 15 17 16 14 14 14 13 14 13 13 13 14 17 19 20 20 20 19 19 19 18 16 13 13 17 23 27 29 28 27 28 29 28 28 27 27 27 28
6 4 2 3 5 5 6 7 6 5 6 6 6 5 5 4 4 4 5 6 6 6 8 9 10 11 12 13 15 14 13 14 17 19 19 18 18 18 19 21 21 20 18 18 18 18 17 15 13 14 16 16 15 14 13 13 14 15 13 12 13 15 17 18 18 19 20 20 20 20 18 15 14 15 17 20 23 26 28 29 29 28 28 27 28 29 29
7 7 6 6 5 6 8 10 10 8 7 7 7 7 6 5 5 5 6 7 7 8 9 9 10 11 13 13 15 15 14 14 17 19 20 20 20 20 20 21 21 21 20 20 19 18 18 15 13 13 15 16 15 14 13 12 13 14 14 13 13 14 15 15 15 17 20 21 20 20 19 18 17 16 15 16 18 22 26 29 30 30 29 27 26 28 28
7 7 7 7 5 6 6 8 11 10 8 8 8 9 8 7 6 5 6 7 8 9 10 10 10 11 12 14 16 16 16 16 18 20 21 22 21 21 21 21 21 22 22 21 20 19 18 16 13 13 14 16 15 13 13 12 12 13 15 15 14 15 14 13 13 15 19 21 21 20 20 20 19 19 19 19 19 20 23 26 30 32 32 31 28 25 25
7 5 5 6 5 6 4 4 6 7 8 9 10 9 8 6 6 5 6 7 7 8 9 11 12 12 13 17 19 17 18 20 21 21 22 23 23 23 22 22 22 23 23 22 21 20 18 16 14 13 14 15 14 12 11 11 11 13 14 14 14 15 15 15 14 15 18 21 22 21 21 20 19 20 21 23 24 22 20 20 24 29 34 36 35 32 31
5 5 3 4 6 6 3 4 6 7 9 10 9 8 7 6 5 5 6 6 7 8 9 12 14 14 16 19 20 18 20 22 23 22 23 24 24 24 23 23 23 23 23 22 21 19 17 16 15 13 11 11 12 11 9 10 11 12 12 14 14 15 16 16 16 16 18 21 23 22 21 21 20 19 18 20 24 25 22 18 17 21 28 35 36 37 38
7 6 2 2 7 6 1 2 4 7 10 10 8 7 7 6 5 5 5 5 7 8 10 12 14 15 17 19 20 20 21 22 23 24 25 25 24 24 23 24 24 23 22 22 21 19 17 16 16 14 11 9 8 8 8 10 11 12 12 14 15 16 17 17 16 17 19 21 22 22 21 21 21 20 17 15 17 21 24 23 20 18 20 27 33 36 37
9 6 0 1 5 4 3 3 4 7 11 10 8 8 7 6 5 5 4 5 7 9 11 13 15 16 18 19 20 21 22 24 25 26 25 25 25 23 22 23 24 22 21 22 22 20 18 17 16 15 13 9 7 7 8 9 11 12 12 13 15 17 18 18 17 17 17 19 20 21 21 22 21 21 19 16 15 17 19 21 20 18 16 18 24 30 34
8 6 4 5 7 6 8 7 6 8 13 12 10 8 8 6 5 5 5 6 7 10 12 13 15 17 19 20 21 22 23 24 25 24 23 24 24 24 23 24 24 22 22 23 22 21 20 18 16 14 13 10 7 7 8 9 11 12 12 13 15 17 18 18 17 15 14 16 18 19 21 22 22 22 20 19 18 18 16 16 16 17 17 16 16 18 23
7 5 6 9 9 7 7 7 6 8 12 13 11 9 7 6 5 4 4 6 8 10 12 14 15 17 19 20 20 21 21 22 22 23 23 23 23 23 23 23 23 22 21 21 21 21 20 17 13 12 11 9 7 7 8 9 11 13 12 12 14 16 17 18 17 15 14 15 16 17 20 23 23 23 22 20 19 18 18 17 16 16 17 17 16 16 18
6 5 7 10 10 3 2 5 6 8 10 11 10 8 7 5 4 3 4 7 9 11 13 15 16 18 18 19 19 18 19 21 23 24 24 23 22 23 23 22 22 21 20 21 22 21 18 14 11 10 9 7 7 8 9 10 11 13 12 12 13 14 16 17 18 17 15 14 14 16 20 22 22 21 21 20 18 17 17 17 17 17 17 16 16 17 18
8 7 7 8 7 5 5 6 7 8 9 9 8 7 6 4 3 4 5 7 9 11 12 15 17 18 17 17 17 18 20 23 27 27 26 23 21 21 21 19 18 17 18 20 19 16 13 11 9 8 7 6 7 8 9 10 12 12 12 12 13 14 15 17 20 20 17 14 12 14 17 19 18 18 19 19 18 17 16 15 16 17 18 16 14 14 15
8 7 7 6 6 9 9 8 7 7 8 8 7 6 5 3 2 4 6 7 9 10 12 15 17 16 14 15 17 19 21 24 26 24 21 20 19 19 19 18 17 17 17 15 12 9 8 7 7 6 5 6 8 9 10 11 12 12 12 12 12 13 14 16 20 20 17 14 11 12 13 15 16 17 18 19 18 16 15 15 15 16 17 17 16 16 14
7 6 7 6 7 9 10 8 7 7 8 7 6 5 3 2 1 4 5 7 9 10 12 14 14 12 12 14 16 17 18 20 21 19 15 10 8 7 6 7 8 8 7 6 6 5 4 3 4 5 6 7 9 10 11 11 12 12 12 12 12 13 13 14 17 19 17 14 11 10 10 12 14 15 15 16 16 15 14 14 15 15 16 17 17 16 14
9 7 6 8 9 10 10 9 8 8 8 7 5 4 3 2 0 2 5 8 9 10 12 13 12 10 11 13 14 15 16 16 15 16 17 16 14 13 13 12 11 8 7 5 4 2 1 1 4 7 8 9 10 11 11 12 12 13 13 12 12 12 12 11 13 15 16 14 11 9 9 11 13 15 14 14 15 15 14 14 14 14 14 16 16 15 14
11 8 8 10 11 10 10 10 9 7 7 6 4 4 4 3 1 2 5 7 8 10 11 12 10 9 10 12 13 14 14 13 11 12 15 16 15 13 12 12 12 11 10 8 6 4 3 3 5 7 9 10 11 11 11 12 12 13 13 13 12 11 11 9 8 10 12 13 11 9 9 10 11 13 14 14 14 15 15 14 13 13 14 15 16 15 15
11 10 8 9 11 9 8 9 8 7 7 6 5 5 5 3 2 1 4 6 7 9 11 10 8 7 9 11 12 13 13 12 12 13 14 15 15 14 13 11 9 8 9 9 9 7 5 5 5 7 9 11 12 12 12 12 12 13 14 14 12 11 10 9 7 8 10 11 10 9 9 9 10 12 13 13 13 14 14 14 13 12 13 13 14 15 14
9 9 6 7 9 8 7 8 9 9 9 8 7 6 5 3 2 1 3 5 6 8 9 8 6 7 9 11 12 12 13 13 13 14 14 13 13 14 14 13 12 9 8 8 10 11 9 8 7 8 9 12 13 12 11 11 12 14 14 13 12 11 10 9 7 7 8 9 9 9 9 8 8 9 11 11 11 12 13 13 12 11 11 11 13 13 13
6 7 5 4 7 9 9 9 10 11 11 9 8 7 6 4 3 1 1 3 5 7 8 8 7 8 9 10 11 11 13 13 13 14 15 15 13 13 14 14 14 12 8 7 9 11 11 10 10 10 10 12 13 13 12 11 13 14 14 12 11 10 10 8 7 8 8 9 9 9 8 7 7 7 8 10 10 10 11 11 11 10 9 10 10 11 11
3 3 4 2 3 8 11 12 13 14 13 10 9 7 6 5 5 3 2 4 5 6 7 7 8 8 9 10 11 11 12 13 14 14 15 16 14 11 10 12 14 14 12 10 10 9 10 11 12 12 11 12 14 14 13 12 13 14 13 11 10 9 9 8 7 8 8 8 8 8 7 6 7 7 8 9 9 9 9 10 10 9 8 8 9 9 10
3 1 1 2 1 5 10 12 13 14 13 10 9 8 7 6 5 5 5 6 6 6 7 8 8 9 10 10 11 12 12 13 13 13 14 15 15 11 9 13 18 19 17 13 11 9 10 11 12 11 11 12 13 14 13 13 13 13 12 11 10 9 8 7 7 7 7 7 7 7 6 5 5 5 6 7 8 8 8 8 8 8 8 8 9 9 10
4 4 4 3 2 4 9 11 11 12 12 11 9 9 8 7 7 6 6 6 6 7 8 8 8 9 10 10 11 12 12 13 13 13 13 13 14 11 9 13 21 24 19 14 11 10 11 12 11 11 11 11 12 12 13 13 12 11 11 11 9 8 7 7 6 6 6 6 6 6 5 5 4 4 5 5 6 6 6 7 7 7 7 8 9 10 11
5 6 6 5 5 5 8 11 11 12 12 11 9 9 9 8 7 7 7 7 7 7 7 8 8 9 9 9 10 11 12 12 13 13 12 12 13 11 8 12 20 24 20 15 12 12 12 13 13 12 12 12 11 12 13 12 11 9 9 10 8 7 6 6 6 5 5 5 5 5 5 5 4 4 4 4 5 5 5 5 6 7 7 7 9 10 12
5 7 8 7 8 7 9 12 13 12 12 11 10 9 9 8 7 7 7 7 7 6 6 7 7 7 8 9 10 11 11 11 12 12 11 10 11 11 9 12 18 22 19 16 14 13 13 14 15 15 15 14 13 13 12 10 8 7 8 8 7 6 5 5 5 4 4 4 4 5 5 5 4 4 4 4 4 4 5 6 7 8 8 8 9 10 13
6 9 9 8 8 8 9 12 14 13 12 11 11 10 9 8 7 7 7 7 6 5 5 5 5 5 6 8 9 10 10 10 11 11 10 9 10 11 12 13 17 19 17 15 15 14 14 14 15 16 15 14 14 13 11 8 7 6 6 7 6 5 4 4 4 4 3 3 4 4 5 4 4 4 4 4 4 4 6 7 8 9 9 9 8 9 12
7 10 10 8 8 8 9 11 14 14 12 11 11 10 9 8 7 7 7 6 5 5 4 4 4 4 5 6 8 8 8 9 10 11 10 10 11 13 15 16 16 17 16 15 15 15 16 15 15 15 15 14 13 11 9 8 7 6 5 5 5 5 5 5 5 4 3 3 3 4 5 4 5 5 4 3 3 5 7 8 9 9 9 9 8 8 10
7 11 13 11 11 11 11 12 14 14 14 13 12 10 8 7 7 7 6 6 6 6 5 4 4 3 4 5 6 6 7 8 9 10 11 10 10 13 15 17 16 16 16 16 17 18 18 17 16 16 17 16 14 12 11 10 9 7 5 4 5 6 7 7 6 5 4 4 4 5 6 6 6 6 5 5 5 6 8 9 10 10 10 10 9 9 10
6 13 14 12 12 14 15 15 15 15 15 14 11 8 7 7 7 7 6 6 6 6 6 4 4 4 4 4 4 4 6 7 8 9 10 10 10 11 13 15 16 15 15 16 19 21 20 18 17 18 18 18 16 15 14 13 12 10 8 7 7 7 8 9 8 7 6 5 6 7 7 7 7 7 7 7 7 8 9 10 11 11 10 10 10 11 13
9 14 13 11 12 14 14 14 15 16 15 12 9 8 8 8 8 8 7 7 7 7 5 4 3 4 5 4 3 4 6 8 9 10 10 11 11 12 13 15 16 16 15 15 17 20 20 19 19 19 19 19 20 19 18 17 15 13 12 11 10 10 10 11 10 9 8 7 8 8 9 9 9 9 9 9 9 10 11 12 12 13 13 13 12 13 14
12 13 13 15 17 17 14 12 13 14 13 10 9 9 9 9 9 8 8 7 7 6 5 4 4 4 5 5 4 4 5 7 9 10 10 11 11 12 14 15 17 17 16 15 16 18 20 21 21 21 20 21 23 23 22 20 18 17 16 15 14 13 13 13 13 11 9 9 9 9 10 11 11 11 11 13 13 13 13 13 14 15 15 16 15 15 15
12 13 14 16 17 16 14 12 11 11 10 10 10 10 10 10 9 9 8 8 6 5 5 4 4 5 5 5 4 5 6 7 8 8 9 10 11 13 14 15 16 17 17 16 16 17 19 21 22 22 22 22 23 24 25 24 21 19 18 18 17 16 15 14 13 12 11 10 10 10 10 11 12 13 13 15 16 16 16 16 16 17 17 18 18 18 17
15 16 15 15 14 13 12 11 10 9 9 9 10 10 10 9 8 8 8 7 6 5 5 5 5 4 5 6 5 5 6 7 8 8 9 9 11 12 14 15 15 16 16 17 17 16 17 19 21 22 23 23 23 24 25 25 24 21 20 19 19 18 17 16 15 14 13 12 11 11 11 11 13 14 15 15 16 16 16 17 17 17 17 18 18 17 16
17 16 15 16 16 13 10 10 12 11 10 9 10 10 9 8 8 7 7 6 5 5 5 6 5 5 5 6 6 6 6 6 7 8 9 10 10 11 13 14 15 15 15 16 17 17 16 17 19 21 23 23 23 24 25 26 26 24 23 22 22 21 21 20 19 17 16 15 14 13 13 13 13 14 15 16 16 15 15 16 17 17 17 17 17 17 17
18 18 18 17 15 11 8 9 12 12 10 9 9 9 8 8 8 8 6 5 4 4 5 6 6 5 5 6 6 7 8 8 8 8 9 9 10 11 12 13 14 14 15 15 16 17 16 15 16 18 21 23 23 23 25 27 28 27 26 25 25 25 25 24 23 21 20 18 17 17 17 18 17 16 16 16 17 17 16 16 17 18 18 20 21 21 22
Wind_Direction
84 72 65 56 46 50 20 337 345 348 351 1 10 37 55 319 298 59 59 43 32 18 9 15 22 22 19 11 360 358 5 10 10 13 18 20 18 18 18 16 12 12 13 11 9 12 16 16 14 11 10 8 3 332 229 211 206 205 200 196 199 202 202 205 211 215 215 212 212 213 214 218 220 218 216 217 220 223 226 228 228 228 229 230 234 237 239
90 60 45 37 17 6 336 320 328 328 337 349 340 13 71 185 193 30 53 105 87 21 350 9 19 14 16 15 7 6 11 13 13 13 16 17 15 14 12 9 4 3 7 7 5 7 12 14 13 9 5 2 2 1 339 249 219 212 202 198 203 203 203 210 216 218 217 216 215 214 216 221 223 223 220 219 220 223 227 229 229 229 230 229 230 234 237
103 45 19 9 352 341 324 326 353 5 160 141 236 155 107 154 154 60 84 129 112 36 350 359 6 3 8 16 20 17 12 10 13 15 13 12 11 10 7 3 358 356 358 360 1 5 7 8 7 5 3 358 356 359 357 338 271 226 211 206 207 207 209 215 218 217 216 218 218 218 221 222 223 224 222 221 223 225 227 228 229 229 229 229 229 230 232
138 121 346 334 331 322 294 316 38 56 123 135 117 105 93 20 141 95 184 172 131 65 359 3 4 356 2 13 19 19 13 9 10 13 12 9 5 3 1 359 356 354 353 353 356 359 0 1 359 358 358 354 353 354 350 344 330 276 232 215 210 211 214 216 216 215 215 216 217 219 221 222 222 223 222 221 224 226 225 226 228 227 226 227 229 230 229
141 146 288 308 303 268 226 141 58 32 56 78 57 136 112 83 280 272 268 146 108 94 29 19 12 354 355 7 13 13 14 12 9 8 8 6 3 359 356 354 353 352 350 347 347 349 352 353 351 353 355 351 348 347 342 339 337 316 274 233 215 213 216 216 216 215 215 214 215 218 220 221 221 221 220 221 223 224 224 224 225 225 224 225 229 230 228
135 158 272 274 250 231 147 77 12 293 306 305 260 141 110 128 216 30 60 92 104 100 45 21 0 340 336 345 7 18 19 14 9 4 2 1 359 357 355 352 351 350 347 344 342 342 347 347 343 348 356 354 351 349 343 341 344 337 314 266 228 217 216 217 217 216 215 214 215 218 220 220 220 218 218 222 223 223 222 220 221 224 225 223 226 229 229
145 193 247 224 209 155 46 36 282 271 286 274 256 192 151 180 165 114 124 118 98 56 12 0 334 319 303 274 310 25 24 18 8 1 358 356 354 354 353 350 348 346 346 345 341 338 341 342 339 344 354 357 358 358 352 347 352 354 347 316 251 227 219 218 217 216 216 216 216 218 219 218 218 218 219 222 223 221 219 217 220 225 225 222 223 228 230
168 188 209 216 1 15 300 249 193 196 225 226 225 210 182 181 264 348 240 26 24 349 333 338 328 318 302 248 225 7 18 14 4 359 354 350 348 348 348 346 344 343 343 343 339 334 334 338 339 340 347 355 2 3 358 352 355 359 1 357 326 260 230 220 218 217 217 217 218 219 218 216 216 217 219 222 224 222 220 221 223 225 224 222 221 225 227
202 223 225 287 330 240 203 176 163 182 176 137 207 241 175 144 7 344 1 10 3 348 343 344 330 319 303 226 202 22 12 3 353 349 346 343 342 341 341 341 341 340 339 339 337 333 331 336 340 339 342 352 2 4 358 357 358 357 359 1 355 334 266 227 223 222 219 219 219 218 215 213 215 217 220 222 223 222 221 222 225 225 224 224 224 225 226
174 241 252 240 239 221 174 154 147 140 114 109 92 283 193 131 91 56 64 31 14 4 356 350 337 318 277 221 181 33 3 350 344 341 338 339 340 338 337 337 338 340 340 337 336 335 333 335 339 340 340 348 359 1 356 356 357 357 358 356 350 344 338 294 245 234 227 223 222 220 216 215 217 219 221 222 222 223 222 222 224 226 227 228 229 229 228
188 221 240 221 221 205 129 154 154 142 171 169 185 271 233 151 129 98 55 15 4 358 351 348 343 327 285 250 308 6 346 336 334 333 332 334 335 334 335 334 334 336 335 334 334 336 336 338 339 340 341 343 349 355 355 354 355 355 353 346 338 336 338 328 290 267 250 234 227 224 221 221 222 222 221 223 225 226 225 224 225 227 228 229 230 231 232
201 218 242 244 245 255 140 160 160 150 166 182 226 273 224 154 173 221 233 333 333 336 333 331 325 312 298 294 313 328 325 321 321 323 325 327 328 329 331 333 332 330 330 333 336 337 337 338 338 340 342 340 341 349 354 354 353 348 339 333 332 336 336 324 299 289 278 252 236 231 228 226 226 225 225 226 225 224 224 225 226 227 228 230 232 234 235
212 220 238 261 267 245 175 171 167 157 165 207 241 268 125 150 197 213 209 271 295 294 300 303 290 282 286 289 297 303 305 307 311 315 316 318 319 321 324 328 329 327 327 330 332 333 334 336 338 339 341 339 338 344 351 351 345 337 331 332 336 338 337 328 313 302 291 269 250 243 239 236 233 231 230 228 225 223 224 225 225 226 228 230 233 236 237
222 228 243 266 278 228 163 155 154 162 193 233 238 139 127 180 217 202 210 250 272 273 282 285 280 284 286 284 287 293 297 298 300 304 309 312 313 316 319 323 326 326 326 325 325 328 332 336 338 338 338 337 334 336 347 349 339 332 333 338 339 336 334 330 321 308 291 273 254 244 244 244 241 238 234 230 227 225 225 225 224 225 227 228 231 237 238
182 220 223 247 286 166 145 140 147 192 215 219 87 113 159 205 240 263 254 260 269 273 283 287 287 291 293 289 287 289 291 292 292 294 300 304 306 309 311 315 320 322 321 319 319 322 327 333 336 336 336 335 332 332 338 343 339 332 332 337 338 334 331 329 324 314 297 281 266 251 246 247 248 247 242 235 230 227 225 226 226 228 229 229 230 235 238
188 198 201 217 314 149 160 157 165 195 187 100 86 127 192 203 228 269 275 274 281 285 287 289 289 291 292 291 291 289 288 291 291 290 291 294 299 303 304 306 312 316 315 314 315 316 320 325 330 333 334 331 328 327 327 334 341 336 329 333 337 333 328 327 324 318 307 294 282 270 262 259 258 257 250 242 237 234 230 230 232 233 234 232 231 234 237
211 237 229 246 7 169 189 200 140 139 135 91 107 170 250 238 223 235 258 272 283 286 288 289 288 287 289 291 293 292 290 290 290 289 288 289 292 297 298 300 304 307 307 308 310 311 314 318 322 328 332 327 322 321 321 327 339 339 330 331 334 330 328 327 323 319 312 303 293 281 271 265 264 265 259 249 242 238 234 232 233 234 234 233 231 233 236
244 267 253 240 261 229 211 227 233 121 115 113 160 197 239 240 225 224 244 271 283 282 284 285 283 285 289 292 294 295 292 290 289 288 287 286 287 291 293 295 298 301 302 303 304 306 308 310 313 320 327 325 316 316 322 327 333 336 334 332 330 327 325 323 321 317 312 306 299 290 278 267 260 263 261 252 244 239 235 232 232 232 233 234 234 234 234
204 238 219 213 231 229 215 221 227 222 220 197 191 222 235 222 228 244 257 273 278 275 276 275 277 286 292 292 294 296 293 291 292 291 289 287 286 286 288 291 295 298 296 295 297 299 301 302 304 310 318 322 317 315 320 323 327 334 338 332 327 324 321 321 320 317 311 307 304 297 287 273 258 256 258 253 245 240 237 235 233 231 231 233 235 234 234
214 238 227 208 234 238 229 231 234 227 216 201 201 219 218 210 234 254 261 268 268 270 274 274 278 287 291 292 293 294 293 293 293 292 291 289 287 285 285 287 291 293 290 289 290 293 295 296 297 300 308 316 319 318 318 319 325 332 334 328 322 319 317 318 320 317 311 307 305 300 293 282 266 258 259 259 253 246 240 238 235 231 229 229 233 235 236
233 260 253 227 236 248 235 230 231 228 214 199 198 202 202 210 233 248 255 259 261 268 275 279 284 289 290 291 293 292 292 293 293 291 290 289 286 285 285 285 286 287 285 285 285 286 288 289 290 292 300 309 316 318 317 319 324 326 326 324 319 315 314 316 319 318 313 308 303 299 295 289 279 270 265 267 269 265 255 246 240 236 233 230 230 234 237
230 247 227 202 224 259 237 215 220 220 206 191 188 188 195 211 225 242 259 264 265 269 276 282 288 292 293 293 293 292 292 292 291 290 290 287 285 284 283 283 283 282 282 282 282 282 283 284 282 283 292 302 310 314 314 317 319 318 320 321 316 311 312 317 320 319 313 307 302 299 296 294 291 287 280 275 276 279 275 264 253 245 240 238 236 236 240
231 236 205 179 211 262 255 201 198 191 177 178 183 185 196 209 216 233 257 273 281 283 286 290 291 293 295 295 294 294 292 291 291 290 288 286 283 282 282 282 281 280 280 281 281 280 280 279 277 277 284 295 302 306 308 311 312 312 312 311 308 308 311 315 319 318 311 305 302 301 299 296 296 297 296 291 284 285 290 285 270 255 247 245 244 242 244
260 272 249 185 212 247 246 187 182 171 168 177 183 187 195 203 212 230 247 268 288 297 300 298 296 295 296 296 295 293 291 292 292 290 288 285 281 279 278 278 278 278 279 280 280 280 278 276 275 275 279 287 294 297 300 304 306 306 302 300 301 304 306 309 315 317 310 305 304 302 301 299 297 297 301 301 295 295 300 302 291 270 256 251 249 246 246
246 268 297 192 227 247 232 151 179 172 171 179 185 187 191 197 214 232 248 272 292 302 304 302 301 301 301 299 297 294 292 292 291 290 288 285 281 277 274 273 274 275 276 278 279 279 277 273 271 272 273 276 283 289 294 301 304 301 296 296 298 298 298 304 312 314 310 307 305 303 301 301 300 298 296 298 300 302 304 306 307 296 272 258 252 250 249
235 248 233 194 246 238 156 168 198 181 179 183 186 186 187 195 216 234 254 281 298 306 305 302 302 304 304 302 299 296 294 294 293 292 290 285 281 276 272 271 273 272 270 273 276 276 275 271 265 264 267 268 272 282 288 296 300 298 293 293 294 293 294 299 304 307 307 305 304 303 303 302 301 299 297 296 298 301 303 306 309 308 298 281 265 256 252
231 224 197 223 249 225 198 206 203 180 183 188 188 186 187 194 214 238 260 280 295 303 304 302 303 306 307 307 304 301 298 296 294 292 288 283 279 275 270 268 269 267 265 268 271 272 272 267 258 256 262 265 268 278 286 291 294 293 290 291 294 294 296 297 296 297 300 302 302 302 304 305 302 300 300 301 300 296 294 296 299 298 299 300 293 277 264
223 200 191 222 244 239 212 207 186 167 178 185 187 185 184 192 213 243 280 299 306 310 311 310 310 311 311 310 308 305 301 298 293 288 282 277 273 271 267 265 266 266 264 264 266 268 267 261 252 251 260 267 271 279 286 290 289 287 286 289 292 294 296 295 293 292 294 297 300 301 302 304 304 302 301 301 299 296 291 288 287 288 290 294 298 296 290
220 197 197 222 239 246 146 165 172 171 174 179 182 183 186 202 237 274 304 315 317 318 319 318 316 315 313 311 310 310 307 304 298 291 285 280 273 266 262 261 263 264 262 260 261 262 257 250 247 252 261 270 278 285 289 289 284 281 281 284 287 290 293 294 293 293 293 294 296 300 302 302 303 302 301 297 293 292 291 289 286 285 288 293 297 296 293
221 210 209 218 220 205 181 177 179 178 175 176 181 184 186 205 275 309 314 318 320 320 321 320 320 320 319 316 316 317 315 311 304 293 283 279 275 267 260 257 257 258 258 256 253 247 241 240 248 257 265 276 285 289 291 288 281 277 277 280 281 282 285 289 291 291 291 291 296 302 303 303 302 303 302 300 297 296 295 295 292 286 283 284 285 285 286
229 215 215 207 193 200 207 199 182 175 173 174 181 184 181 192 284 314 317 320 321 321 321 321 321 324 325 321 320 321 320 319 318 308 289 273 267 263 257 253 251 253 253 244 226 212 218 238 255 265 278 289 293 294 292 287 281 276 276 280 280 280 284 290 291 290 288 290 296 301 301 301 302 303 303 303 303 304 303 300 296 290 285 280 275 271 270
215 191 203 208 199 204 208 197 182 181 178 174 181 186 175 170 304 315 314 316 319 321 321 321 323 327 327 324 326 329 326 326 335 345 342 325 311 309 298 277 263 257 244 207 172 173 199 239 271 289 298 300 299 298 293 287 281 277 279 282 283 285 290 293 292 290 290 291 293 297 299 299 299 299 298 298 298 297 296 293 290 286 284 281 275 269 264
204 182 200 209 203 206 208 200 192 188 180 174 175 163 132 113 75 305 309 316 320 322 322 322 324 329 330 330 334 338 334 330 341 359 9 15 21 30 39 48 55 59 65 77 91 101 95 334 308 307 310 309 305 301 295 288 283 280 282 285 285 285 287 287 284 285 288 290 291 293 295 296 296 295 294 295 295 293 291 288 287 287 286 283 280 276 272
213 209 212 200 192 197 199 192 187 180 168 162 153 130 116 117 144 296 317 324 323 322 323 325 327 332 337 341 346 347 342 341 349 0 8 13 16 20 31 47 57 61 58 49 45 47 32 346 322 316 315 314 311 304 297 292 287 284 286 289 289 286 282 277 273 276 281 285 290 293 293 292 294 295 296 297 297 297 295 294 295 296 294 292 291 290 288
240 237 228 203 197 198 184 171 171 166 156 151 140 123 120 135 161 310 328 329 326 324 326 328 329 336 344 350 357 358 354 352 353 356 4 13 15 13 16 25 37 51 52 40 26 15 356 337 331 326 319 316 312 306 299 294 291 289 291 293 291 288 283 276 268 266 270 277 282 285 287 291 295 298 301 302 301 300 301 302 305 308 308 308 311 312 309
265 250 235 202 193 184 157 149 157 153 142 137 133 128 133 145 145 351 334 335 333 334 337 340 345 353 356 358 3 5 3 1 358 355 357 6 13 17 19 16 13 20 31 21 6 356 345 339 340 335 323 316 311 306 302 300 295 294 295 294 291 290 289 283 276 271 271 276 279 280 283 290 296 300 304 305 306 307 308 309 314 322 326 327 332 336 334
296 266 251 204 171 159 144 140 143 137 129 127 131 135 141 142 131 101 358 7 3 356 358 3 5 6 4 3 4 6 5 5 4 0 358 0 7 19 25 18 7 3 2 355 351 347 341 336 338 334 323 316 311 306 303 303 301 298 297 294 291 293 292 289 287 287 286 286 289 292 296 305 313 316 315 312 311 313 317 320 325 334 342 348 353 359 2
9 321 294 284 164 149 139 133 134 131 127 128 135 140 141 137 131 128 93 62 43 29 26 25 18 13 9 4 3 4 3 3 5 6 5 2 3 11 22 18 7 356 345 340 343 343 336 334 335 331 320 314 312 308 305 305 306 304 299 293 292 295 294 291 293 297 297 297 300 303 310 321 328 328 324 320 318 321 327 332 336 342 353 4 12 16 21
108 109 244 268 224 142 132 130 133 135 135 138 144 146 143 138 135 126 106 87 71 56 50 43 33 25 19 13 8 6 2 0 3 8 9 5 3 7 15 13 7 1 351 344 345 346 340 336 334 327 319 316 314 311 308 310 312 308 300 295 295 296 295 294 296 299 300 303 308 313 320 330 337 337 330 324 323 328 336 345 351 356 6 19 30 37 39
150 134 148 181 195 150 135 133 136 138 138 141 148 150 149 146 141 128 111 98 89 77 63 54 47 38 30 23 17 12 6 2 2 8 12 8 2 2 5 4 3 3 360 355 354 352 348 344 337 327 322 322 318 314 313 315 315 310 304 300 300 301 300 300 301 304 309 311 315 325 336 341 344 346 340 333 333 337 343 353 3 9 19 33 46 55 59
179 144 137 162 192 179 152 144 141 139 139 141 145 149 150 148 140 131 120 108 99 89 74 63 57 47 36 29 23 17 14 10 4 7 16 17 8 1 358 359 0 1 2 4 5 360 354 352 349 341 335 330 324 320 319 317 313 312 310 308 307 308 309 308 307 312 323 330 333 340 349 355 359 359 353 348 351 356 4 19 27 29 34 45 58 68 73
196 153 146 171 193 184 160 150 146 143 143 145 147 148 150 151 145 136 128 118 106 95 80 71 67 55 39 31 24 19 19 16 7 4 15 27 21 8 358 356 359 360 1 6 10 6 360 357 354 350 344 338 331 327 324 317 312 315 320 319 319 320 322 322 321 320 326 341 356 5 10 13 15 14 12 11 13 17 28 42 47 48 50 56 64 72 77
217 167 163 181 187 176 162 154 149 145 146 150 153 152 153 157 155 143 132 121 110 97 79 64 60 51 36 31 27 20 16 14 8 4 9 22 26 19 9 3 4 4 3 6 9 8 5 2 357 351 348 345 340 336 332 326 322 325 326 327 334 343 346 344 342 340 340 357 17 28 34 37 37 36 34 31 31 39 50 57 59 61 63 64 67 73 80
243 180 171 174 171 168 166 159 153 152 153 155 156 157 159 161 160 150 136 121 105 91 76 57 45 32 20 21 26 23 16 12 12 10 9 13 18 19 15 12 10 9 9 10 12 11 9 7 3 358 357 358 356 353 352 350 346 344 341 342 355 11 19 16 8 3 6 22 39 48 51 53 58 61 61 59 60 65 68 69 70 70 71 71 71 77 83
244 178 168 168 165 167 172 168 161 159 157 153 153 157 159 156 151 144 132 117 100 89 80 66 48 28 10 11 22 28 23 19 18 18 17 16 15 14 13 14 14 14 13 17 20 18 15 14 13 11 11 13 16 17 18 16 12 10 13 17 25 36 42 41 34 25 23 36 58 68 70 70 70 71 73 77 79 79 79 81 81 79 78 77 78 81 86
200 159 162 170 170 167 170 170 164 156 149 145 146 151 154 149 142 133 124 114 103 91 79 60 37 15 357 352 5 23 28 28 28 27 25 23 20 17 16 17 18 16 17 21 24 21 18 17 19 20 22 26 30 33 32 30 30 31 36 41 46 48 49 50 50 48 46 50 64 73 76 76 76 77 81 85 85 85 87 89 87 84 81 82 82 84 86
163 150 157 166 162 159 164 165 158 151 148 147 145 148 153 150 138 126 121 118 108 93 73 47 27 10 356 354 10 28 25 23 25 27 27 25 25 23 21 21 21 20 22 26 26 23 21 23 25 27 29 34 38 39 37 35 35 38 42 49 55 58 56 55 56 56 55 59 66 73 78 80 81 81 85 88 89 88 89 89 88 86 85 85 83 82 83
164 156 156 154 152 155 162 163 155 152 154 153 147 146 150 146 135 129 129 125 110 92 72 52 34 14 2 8 39 56 41 28 26 25 23 22 24 26 26 24 24 24 25 28 28 26 26 28 30 32 34 37 39 39 38 37 36 35 37 45 55 61 61 60 60 61 61 63 65 70 76 81 83 83 84 88 90 90 88 86 85 84 85 85 82 78 77
150 144 142 141 143 151 162 163 157 152 151 146 142 145 146 141 135 135 134 124 109 93 79 66 49 24 11 18 47 69 64 50 41 35 29 25 27 30 31 30 29 28 29 31 31 29 29 30 32 34 37 39 40 39 38 39 38 36 36 41 50 56 58 58 60 62 63 63 65 70 74 78 81 83 85 85 87 87 86 85 85 85 86 88 87 83 78
133 130 128 128 132 145 159 158 148 143 143 143 145 149 148 143 138 136 131 123 114 105 90 75 57 35 25 30 46 70 76 64 50 42 39 36 35 36 36 34 32 31 31 32 31 30 31 33 34 35 37 40 40 40 39 39 38 39 39 42 47 52 56 58 58 57 56 54 58 64 68 72 79 84 85 84 84 83 82 82 84 85 86 87 88 85 83
126 123 120 124 135 151 162 154 144 143 145 146 147 149 147 139 131 129 126 122 121 116 100 82 63 46 38 39 44 55 68 69 61 52 46 44 43 42 41 37 34 32 33 34 34 33 34 36 37 39 40 40 40 40 41 41 39 38 39 42 45 50 54 57 58 58 57 56 57 59 63 67 71 76 78 79 80 79 78 79 81 82 84 88 91 93 94
111 113 114 123 136 146 144 137 140 145 145 143 144 147 142 132 125 125 123 120 119 117 106 90 74 57 48 47 48 50 56 65 70 65 56 50 47 46 43 39 35 32 33 35 36 36 37 39 41 42 43 43 41 42 45 47 45 41 39 40 43 47 52 56 59 62 64 65 63 65 69 74 76 76 77 80 83 83 82 82 82 83 86 91 95 98 100